Wind_Speed
18 19 23 25 24 24 22 20 21 24 33 23 21 24 25 26 24 24 22 24 25 26 27 26 23 21 19 20 16 13 15 13 17 7 9 8 12 10 13 12 13 13 13
19 17 16 22 24 22 22 23 23 20 18 15 18 19 21 13 13 14 18 19 20 23 26 25 27 24 20 18 17 20 18 13 17 12 18 4 12 10 10 12 13 12 10
17 17 20 22 23 21 23 25 26 20 18 14 13 11 8 10 12 11 14 18 21 22 24 24 22 24 26 23 21 20 20 23 16 15 12 11 9 15 11 12 14 15 16
14 16 16 16 20 20 18 19 21 19 18 18 15 11 12 10 12 16 17 17 20 22 22 23 23 23 22 25 25 22 22 19 16 15 14 10 10 16 14 10 16 15 11
19 18 16 16 19 21 21 20 20 25 22 18 24 7 12 14 10 15 16 17 20 22 22 23 26 22 20 23 23 22 21 19 18 15 14 13 14 15 15 13 15 16 15
19 18 18 18 21 23 21 18 24 24 23 25 17 17 17 12 12 4 6 10 17 19 22 23 25 23 21 24 22 20 21 20 19 17 15 16 14 15 16 18 16 16 15
21 22 20 21 19 19 20 17 18 15 14 15 19 23 32 10 13 14 17 18 18 22 21 23 21 27 25 23 24 23 23 22 21 20 19 18 18 18 19 18 18 18 20
28 27 28 28 27 23 22 20 18 18 15 16 20 23 21 19 21 18 18 19 21 18 26 22 24 26 29 27 25 25 25 25 24 23 22 20 23 22 22 21 21 20 21
35 33 34 35 34 33 30 27 23 23 21 20 20 20 21 23 24 25 21 22 21 21 18 27 26 27 29 28 29 28 29 28 27 25 26 26 25 24 23 22 20 21 22
45 42 41 41 42 40 39 39 38 35 32 30 28 25 24 24 24 25 27 25 24 23 24 22 22 27 21 27 32 31 33 31 28 28 30 28 26 25 23 23 20 22 21
50 52 53 53 51 51 48 45 44 43 41 40 36 35 33 29 27 26 29 30 29 25 26 25 30 29 24 24 27 30 27 27 28 31 31 30 27 27 23 23 22 22 21
45 47 47 47 47 51 57 58 55 52 52 48 44 41 39 37 34 30 28 30 25 23 26 26 24 27 27 26 26 31 27 30 31 31 30 27 30 24 22 22 20 17 22
39 42 43 44 42 44 48 52 56 60 57 56 52 49 45 40 41 34 29 29 28 28 25 29 27 24 24 26 27 30 33 35 34 34 32 31 26 24 26 25 26 23 23
38 39 39 41 41 40 42 45 50 51 51 52 43 39 38 40 40 36 37 30 30 29 28 30 28 27 23 25 28 32 34 34 34 33 31 28 23 27 28 23 28 34 28
37 37 37 38 41 40 38 38 43 45 41 38 34 28 28 28 29 40 37 34 30 30 28 29 33 35 31 32 34 32 36 35 34 32 31 29 29 30 28 27 27 30 32
32 29 33 32 34 29 29 30 33 38 39 40 39 40 40 41 39 37 34 36 33 35 33 32 35 41 42 35 37 34 37 38 35 33 33 32 32 28 27 29 33 28 29
31 31 31 31 31 32 27 27 29 28 33 34 38 39 39 39 40 37 35 38 38 39 41 44 45 44 43 42 41 36 35 38 36 34 33 32 32 29 27 30 28 25 32
30 30 30 30 30 30 30 30 30 28 28 28 30 35 35 37 39 40 39 43 45 43 45 44 40 43 42 44 40 42 41 35 34 33 33 29 32 30 26 28 27 31 31
26 26 25 26 27 28 28 32 31 34 30 28 27 28 31 33 38 41 42 46 48 47 47 44 43 40 38 35 36 37 40 37 41 39 35 34 30 30 29 23 26 27 28
25 27 26 24 23 22 23 23 24 23 29 30 28 27 26 28 35 43 44 45 49 50 50 47 46 43 42 40 34 29 38 40 43 35 34 36 35 32 31 29 27 26 30
19 17 18 19 19 20 21 20 22 24 27 27 29 25 26 30 34 36 41 44 47 49 47 45 46 42 41 42 37 40 29 36 44 43 42 44 44 37 35 28 27 27 24
19 19 17 17 17 17 19 18 21 24 23 26 27 25 25 34 36 24 25 35 42 41 41 42 42 41 40 37 36 36 32 33 29 29 37 45 51 38 31 31 28 27 26
23 23 21 21 21 23 19 23 22 22 24 24 23 23 22 30 23 21 29 30 28 31 34 37 38 38 38 39 39 39 39 39 34 32 25 30 38 39 34 32 31 27 28
25 21 18 19 20 21 23 22 20 20 21 20 21 18 23 26 20 17 29 24 24 21 25 29 32 32 34 37 38 37 40 40 38 40 37 33 37 34 34 33 29 30 29
20 18 19 21 19 23 20 21 20 18 17 15 16 21 21 17 26 23 22 23 21 22 23 27 31 34 38 40 39 37 39 41 39 39 39 39 41 46 38 33 31 31 28
25 18 18 18 17 18 19 19 17 17 15 14 17 21 22 28 30 33 25 24 22 28 29 31 33 36 37 38 40 39 37 37 39 39 43 43 43 38 39 34 32 30 29
Wind_Direction
276 266 267 256 264 258 261 264 282 284 294 256 277 291 286 282 259 250 244 234 233 223 222 218 216 227 226 223 225 223 229 227 243 233 232 290 249 242 267 270 276 280 285
291 285 279 264 258 257 263 266 271 280 287 267 280 299 299 280 264 241 221 222 227 215 211 214 217 228 225 222 225 225 224 233 226 230 259 204 267 260 260 270 273 277 259
284 280 277 261 262 256 260 262 265 272 274 266 275 295 310 323 280 231 219 218 217 213 211 220 226 233 229 228 226 214 219 225 235 240 228 252 289 294 287 281 279 275 278
271 271 283 276 254 264 259 261 262 258 265 270 263 274 282 315 298 246 230 220 209 212 218 228 232 232 227 223 218 219 228 232 235 244 255 266 274 280 284 276 262 293 287
277 272 270 264 249 253 259 265 258 247 248 249 260 238 279 265 324 249 233 228 219 223 226 235 232 226 222 211 210 220 225 225 235 246 260 260 255 257 278 273 283 278 270
264 267 265 254 250 254 257 259 264 282 262 244 243 254 257 264 254 299 253 255 249 243 238 234 226 219 211 215 219 227 229 229 237 245 257 268 272 272 273 277 283 287 283
263 264 261 261 255 253 256 265 278 290 299 280 282 272 254 259 256 252 253 248 250 241 234 231 231 228 217 221 225 239 233 238 242 249 257 265 270 273 273 281 283 281 281
267 267 268 264 262 259 264 266 271 281 280 266 265 277 281 276 265 250 256 258 251 249 238 226 234 225 229 228 235 238 239 242 247 255 263 266 271 277 277 274 278 282 284
273 269 267 265 261 262 263 263 264 272 274 270 269 266 271 273 271 268 243 253 252 245 247 235 241 231 233 235 238 239 243 247 251 252 262 265 272 278 277 271 280 283 291
269 266 265 265 266 262 262 268 268 264 267 271 271 267 272 272 268 270 273 254 250 249 243 239 245 247 246 237 243 240 244 244 251 256 265 268 269 274 269 271 279 285 287
268 266 264 263 263 266 265 261 262 267 268 268 267 269 269 271 272 267 265 257 267 248 250 247 246 248 253 263 244 240 250 248 249 255 260 266 272 273 265 268 273 277 281
267 266 266 267 265 263 262 264 263 262 265 265 266 266 266 268 266 267 265 265 267 268 251 262 256 254 249 249 246 248 252 250 248 250 258 268 274 269 270 272 271 273 278
274 271 269 268 269 268 265 261 261 262 263 268 269 268 266 266 268 261 261 264 261 248 247 251 262 267 267 257 250 252 252 251 251 254 260 263 265 259 267 277 262 287 278
278 273 270 271 273 271 269 264 261 259 257 260 265 271 270 264 260 259 259 258 258 255 246 247 251 254 250 262 263 262 259 255 254 256 259 259 251 266 261 266 258 280 282
276 278 277 274 272 273 272 262 256 254 253 253 254 254 254 256 259 255 256 255 249 247 244 241 244 245 253 261 262 258 262 259 256 257 258 257 256 253 265 266 273 260 278
275 275 272 275 277 275 271 260 267 258 252 252 250 253 249 245 247 257 255 245 238 238 232 232 237 240 248 256 260 259 254 257 255 255 256 255 256 262 261 265 269 264 266
271 269 269 269 274 270 265 255 248 249 268 249 249 250 246 246 248 246 242 229 231 234 234 236 237 241 241 246 253 250 240 254 253 254 255 258 258 262 261 267 257 239 263
268 271 269 267 267 266 265 258 249 252 252 259 257 247 249 244 241 239 235 228 228 230 236 241 247 250 247 249 251 252 244 239 252 258 258 258 254 259 258 259 249 250 261
265 270 270 267 269 266 262 260 255 251 246 253 250 254 245 240 238 237 235 231 228 231 236 241 246 248 258 261 260 257 239 240 242 243 251 261 258 253 257 250 249 257 258
253 268 269 265 262 267 266 266 259 254 242 242 242 242 253 259 245 234 234 232 231 233 236 243 249 249 252 255 262 260 253 244 241 243 246 236 255 249 251 245 243 242 259
271 262 260 260 273 271 265 268 268 257 252 244 241 232 230 240 260 238 236 237 236 237 240 244 250 252 250 255 258 258 265 245 236 244 248 239 253 244 248 245 239 248 237
271 263 262 263 279 279 271 269 269 271 261 257 242 227 237 246 237 229 258 257 240 241 243 245 249 251 254 254 252 252 259 252 243 250 245 251 241 235 233 245 239 232 238
267 263 261 268 263 280 268 265 272 272 267 263 256 226 232 257 242 240 248 245 251 249 248 249 251 250 250 250 252 252 254 254 256 255 263 255 227 208 234 244 245 234 239
273 279 246 254 258 266 269 277 279 273 266 262 242 227 235 239 246 241 249 247 249 253 251 252 251 249 247 249 251 251 254 258 257 255 265 257 236 231 239 245 243 241 240
256 264 268 268 258 271 266 270 276 267 263 254 217 231 233 220 250 249 252 237 240 246 247 246 244 245 247 247 252 256 258 258 260 263 255 253 238 229 233 238 239 241 240
227 257 283 267 266 263 273 278 272 265 254 259 242 237 236 223 228 247 236 244 252 253 247 245 249 255 259 258 255 256 259 257 260 254 248 237 223 215 225 225 234 236 239
Height
3163 3163 3161 3162 3162 3164 3164 3164 3163 3161 3158 3157 3158 3157 3155 3152 3149 3150 3152 3157 3160 3164 3168 3173 3175 3179 3181 3183 3184 3187 3187 3188 3188 3194 3194 3192 3195 3192 3191 3193 3193 3194 3194
3159 3158 3158 3158 3158 3159 3160 3160 3157 3157 3156 3154 3154 3153 3147 3146 3145 3144 3147 3151 3155 3158 3162 3168 3171 3174 3177 3178 3181 3182 3184 3184 3186 3193 3175 3189 3193 3187 3188 3189 3190 3190 3193
3155 3154 3153 3153 3152 3155 3156 3156 3154 3153 3154 3151 3152 3151 3147 3146 3146 3144 3146 3148 3151 3155 3159 3163 3166 3167 3171 3173 3176 3176 3179 3180 3181 3185 3188 3190 3186 3184 3184 3185 3187 3186 3187
3151 3150 3149 3149 3150 3150 3151 3150 3150 3149 3148 3148 3146 3146 3145 3144 3144 3144 3145 3145 3147 3151 3154 3158 3161 3162 3165 3168 3171 3174 3176 3177 3177 3178 3179 3181 3182 3184 3182 3183 3183 3183 3182
3146 3146 3145 3145 3145 3145 3145 3146 3144 3142 3141 3143 3137 3126 3141 3141 3141 3141 3142 3144 3145 3146 3149 3153 3155 3158 3160 3163 3167 3171 3172 3174 3174 3176 3177 3179 3181 3180 3179 3180 3177 3180 3179
3141 3141 3141 3141 3140 3139 3138 3139 3135 3138 3139 3138 3133 3133 3133 3133 3136 3138 3139 3142 3142 3143 3144 3147 3150 3153 3156 3159 3162 3164 3167 3170 3171 3173 3175 3176 3177 3176 3176 3175 3175 3175 3175
3137 3136 3136 3136 3136 3134 3133 3133 3132 3133 3135 3134 3130 3127 3091 3121 3128 3134 3136 3136 3137 3137 3139 3142 3144 3148 3150 3154 3158 3159 3162 3165 3167 3169 3170 3172 3172 3173 3172 3171 3171 3170 3170
3130 3129 3129 3130 3129 3129 3127 3128 3128 3127 3127 3128 3129 3125 3121 3122 3124 3126 3128 3128 3130 3131 3131 3134 3139 3143 3145 3149 3151 3154 3157 3160 3162 3163 3165 3166 3167 3167 3165 3166 3165 3164 3164
3121 3121 3121 3120 3121 3122 3121 3121 3122 3122 3121 3122 3122 3121 3121 3121 3120 3107 3120 3123 3123 3125 3127 3130 3132 3134 3138 3140 3145 3147 3150 3152 3155 3157 3158 3159 3159 3159 3159 3159 3159 3158 3157
3110 3111 3110 3110 3109 3111 3113 3112 3113 3114 3114 3114 3114 3116 3116 3115 3116 3116 3111 3116 3118 3120 3123 3125 3127 3128 3125 3133 3137 3139 3141 3145 3147 3149 3149 3151 3152 3153 3153 3153 3153 3152 3152
3095 3094 3095 3096 3097 3097 3099 3101 3102 3102 3104 3105 3106 3107 3108 3109 3110 3111 3109 3109 3112 3115 3117 3118 3120 3123 3126 3128 3129 3130 3135 3138 3140 3140 3141 3142 3144 3145 3145 3146 3145 3145 3145
3078 3079 3079 3080 3081 3082 3083 3084 3087 3090 3090 3093 3094 3097 3098 3099 3102 3103 3103 3103 3100 3104 3111 3112 3114 3116 3120 3122 3124 3125 3128 3130 3130 3132 3134 3135 3136 3136 3137 3137 3138 3139 3139
3065 3064 3065 3066 3067 3068 3068 3068 3070 3072 3076 3076 3079 3083 3087 3090 3090 3094 3095 3096 3097 3100 3101 3105 3107 3110 3112 3114 3116 3117 3119 3121 3123 3124 3126 3127 3129 3130 3130 3129 3128 3132 3132
3054 3053 3052 3051 3052 3054 3054 3054 3054 3057 3061 3064 3067 3070 3074 3077 3079 3084 3085 3087 3089 3090 3094 3096 3099 3101 3103 3105 3107 3109 3111 3113 3115 3116 3118 3122 3124 3124 3124 3124 3124 3123 3123
3043 3042 3041 3041 3040 3039 3038 3039 3041 3044 3048 3052 3057 3062 3065 3067 3070 3069 3074 3078 3080 3082 3085 3088 3090 3092 3093 3094 3097 3099 3103 3104 3106 3109 3111 3113 3115 3117 3116 3117 3117 3116 3116
3032 3032 3031 3030 3030 3028 3027 3028 3029 3032 3036 3039 3044 3047 3050 3052 3056 3058 3062 3065 3069 3072 3074 3076 3079 3081 3083 3085 3088 3090 3092 3095 3098 3100 3103 3105 3106 3108 3109 3108 3108 3109 3109
3021 3021 3021 3020 3019 3019 3019 3021 3021 3025 3024 3027 3030 3033 3036 3040 3043 3047 3050 3054 3058 3061 3062 3064 3067 3070 3072 3075 3078 3082 3080 3085 3088 3090 3092 3095 3097 3100 3100 3099 3100 3101 3102
3009 3010 3010 3011 3011 3011 3012 3012 3013 3014 3016 3018 3018 3021 3024 3027 3031 3035 3039 3041 3045 3049 3052 3055 3059 3061 3064 3066 3069 3071 3073 3077 3078 3080 3082 3085 3088 3089 3091 3092 3093 3095 3093
3000 3001 3001 3002 3002 3002 3002 3001 3002 3005 3006 3010 3012 3012 3013 3017 3019 3023 3026 3028 3035 3039 3042 3045 3049 3052 3055 3055 3058 3061 3064 3067 3068 3071 3073 3076 3078 3080 3082 3083 3086 3086 3086
2991 2993 2993 2994 2994 2994 2994 2994 2994 2995 2997 3000 3004 3007 3007 3007 3009 3012 3015 3020 3024 3028 3033 3037 3039 3044 3047 3049 3052 3052 3053 3056 3059 3061 3066 3062 3070 3071 3073 3075 3077 3080 3078
2986 2987 2987 2988 2988 2988 2989 2987 2988 2988 2988 2990 2992 2997 3001 3003 3002 3003 3006 3009 3014 3017 3022 3027 3030 3034 3038 3040 3042 3045 3044 3045 3048 3051 3054 3058 3061 3065 3065 3066 3069 3070 3074
2981 2981 2981 2981 2982 2982 2983 2982 2982 2981 2981 2982 2984 2988 2992 2993 2994 2998 3001 3000 3004 3009 3013 3017 3021 3024 3027 3030 3033 3035 3036 3038 3039 3040 3043 3042 3045 3054 3058 3057 3059 3062 3065
2974 2974 2975 2974 2975 2972 2975 2976 2975 2975 2975 2975 2977 2980 2984 2985 2987 2992 2995 2996 2996 3000 3003 3007 3010 3014 3017 3018 3021 3024 3025 3028 3029 3030 3032 3033 3032 3037 3044 3047 3049 3053 3055
2964 2963 2967 2969 2970 2971 2971 2970 2969 2969 2968 2968 2969 2973 2979 2981 2982 2983 2986 2987 2989 2991 2995 2997 3001 3003 3005 3006 3009 3011 3013 3016 3019 3022 3022 3025 3030 3032 3034 3038 3041 3044 3047
2957 2959 2962 2963 2963 2964 2964 2964 2964 2964 2963 2963 2966 2971 2973 2975 2978 2973 2977 2981 2982 2984 2987 2989 2989 2991 2992 2995 2998 3000 3003 3005 3008 3009 3010 3014 3018 3022 3025 3029 3033 3036 3039
2950 2955 2957 2957 2958 2958 2958 2956 2958 2958 2958 2958 2960 2961 2963 2966 2968 2969 2970 2971 2973 2975 2977 2979 2981 2982 2983 2985 2987 2989 2992 2993 2995 2995 2997 3000 3004 3002 3013 3019 3023 3028 3030